Current weather by "City, St" or "zip code"  
 

Current Conditions: Akron, Akron Fulton International Airport, OH

Fair


73.0 F

Last Updated on May 21 2022, 5:54 am EDT
Humidity: 71%
Wind Speed: S 9.2 mph
Barometer 29.93 in
Dewpoint: 63.0 F
Visibility: 10.00 mi
Precip: --
Heat Index: NA
Wind Chill: NA
Current conditions at:

Akron, Akron Fulton International Airport, OH (KAKR)

Lat: 41.0375 Lon: 81.46417

Local Radar Image active severe weather and emergency alerts image image weather storm and storm spotter reports image weather observation monitoring service image
Local
Radar
Active
Alerts
Storm Reports Obs
Monitoring

Sign-up For Email & Text Message Weather Alert Notification Services



Advertise Here

Observation History for Akron, Akron Fulton International Airport, OH


Time Wind
(mph)
Vis
(mi)
Weather Precip (in) Temperature (F) Relative
Humidity
Wind
Chill
(F)
Heat
Index
(F)
Pressure
Air Dwpt altimeter
(in)
sea level
(mb)
Rmks
5:54 am EDT S 9.2 10.00 Fair -- 73.0 63.0 71% NA NA 29.93 1012.4
4:54 am EDT SW 9.2 10.00 Fair -- 74.0 63.0 69% NA NA 29.92 1012.1
3:54 am EDT SW 12.7 10.00 Fair -- 75.0 63.0 66% NA NA 29.89 1011.0
2:54 am EDT S 10.4 10.00 Fair -- 75.0 62.1 64% NA NA 29.86 1010.2
1:54 am EDT SW 10.4 10.00 Fair -- 75.0 63.0 66% NA NA 29.86 1010.0
12:54 am EDT SW 8.1 10.00 Fair -- 75.0 64.0 69% NA NA 29.85 1010.1
11:54 pm EDT SW 9.2 10.00 Fair -- 78.0 64.9 64% NA NA 29.83 1009.4
10:54 pm EDT SW 8.1 10.00 Fair -- 80.0 64.9 60% NA 82 29.81 1008.4
9:54 pm EDT S 15.0 10.00 Fair -- 80.0 66.0 62% NA 82 29.75 1006.5
8:54 pm EDT S 15.0 G 24.2 10.00 Fair -- 81.0 64.9 58% NA 83 29.72 1005.4
7:54 pm EDT S 17.3 10.00 Fair -- 81.0 64.9 58% NA 83 29.71 1004.9
5:54 pm EDT SW 19.6 G 28.8 10.00 Fair -- 83.0 64.0 53% NA 84 29.69 1004.5
4:54 pm EDT S 23.0 G 29.9 10.00 Partly Cloudy and Breezy -- 84.0 66.9 57% NA 87 29.70 1004.9
3:54 pm EDT S 17.3 G 24.2 10.00 Partly Cloudy -- 85.0 68.0 57% NA 88 29.72 1005.4
2:54 pm EDT SW 17.3 G 25.3 10.00 Partly Cloudy -- 83.0 68.0 61% NA 86 29.71 1005.2
11:54 am EDT S 10.4 10.00 Overcast 00.09 69.0 63.0 81% NA NA 29.73 1006.0
10:54 am EDT S 9.2 10.00 Light Rain 00.12 68.0 62.1 81% NA NA 29.72 1005.8
9:54 am EDT SW 13.8 4.00 Light Rain -- 68.0 62.1 81% NA NA 29.71 1005.4
8:54 am EDT S 15.0 G 24.2 10.00 Mostly Cloudy -- 72.0 59.0 64% NA NA 29.68 1004.4
7:54 am EDT S 15.0 G 27.6 10.00 Fair -- 74.0 59.0 60% NA NA 29.66 1003.5
5:54 am EDT S 8.1 10.00 Fair -- 70.0 57.9 66% NA NA 29.66 1003.5

Regional Weather Observation


Cleveland Hopkins International Airport, OH (KCLE)

Fair
75.0 F

Portage County Airport, OH (KPOV)

Fair
71.0 F

Cleveland, Burke Lakefront Airport, OH (KBKL)

Fair
78.0 F

Cleveland / Cuyahoga, OH (KCGF)

Fair
75.0 F

Willoughby, OH (KLNN)

Fair
75.0 F

Akron Canton Regional Airport, OH (KCAK)

Fair
72.0 F

Advertise Here


Advertise Here